Flag Weather past 2 weeks in Santa Maria, Cabo Verde

Now
73 °F

Passing clouds.


Feels Like: 76 °F
Forecast: 71 / 80 °F
Wind: 16 mph from Northeast

Location: Sal

Current Time: Nov 27, 2014 at 5:11:40 AM

Latest Report: Nov 27, 2014 at 4:00 AM


Visibility: N/A

Pressure: 29.98 "Hg

Humidity: 65%

Dew point: 61 °F

Location of Santa MariaLocation

Historic Weather in Santa Maria — Graph

°F

Santa Maria temperature yesterday

Maximum temperature yesterday: 79 °F (at 11:00 AM)
Minimum temperature yesterday: 72 °F (at 6:00 AM)
Average temperature yesterday: 75 °F

Past Weeks' High & Low Weather Summary

 TemperatureHumidityPressure
High84 °F (Nov 13, 1:00 PM)89% (Nov 15, 2:00 AM)30.07 "Hg (Nov 15, 2:00 AM)
Low68 °F (Nov 21, 6:00 AM)48% (Nov 19, 12:00 PM)29.86 "Hg (Nov 17, 3:00 PM)
Average76 °F70%29.97 "Hg
* Reported Nov 12 4:00 AM — Nov 27 4:00 AM, Santa Maria, Weather by CustomWeather, © 2014

Note: Actual official high and low records may vary slightly from our data, if they occured in-between our weather recording intervals... More about our weather records

Advertising

Santa Maria weather history for previous 24 hours

 ConditionsComfort  
Time TempWeatherWind HumidityBarometerVisibility
4:00 AM
Nov 27
73 °FPassing clouds.16 mph65%29.98 "HgN/A
3:00 AM73 °FPassing clouds.14 mph65%30.01 "HgN/A
2:00 AM73 °FPassing clouds.16 mph69%30.01 "HgN/A
1:00 AM73 °FPassing clouds.16 mph65%30.04 "HgN/A
12:00 AM73 °FPassing clouds.17 mph69%30.04 "HgN/A
11:00 PM
Nov 26
73 °FPassing clouds.17 mph74%30.04 "HgN/A
10:00 PM73 °FPassing clouds.14 mph69%30.04 "HgN/A
9:00 PM73 °FPassing clouds.14 mph69%30.04 "HgN/A
8:00 PM73 °FPassing clouds.15 mph74%30.01 "HgN/A
7:00 PM73 °FPassing clouds.16 mph69%30.01 "HgN/A
6:00 PM75 °FPassing clouds.16 mph69%29.98 "HgN/A
5:00 PM77 °FPartly cloudy.17 mph65%29.98 "HgN/A
4:00 PM77 °FPartly cloudy.17 mph65%29.98 "HgN/A
3:00 PM77 °FBroken clouds.17 mph65%29.98 "HgN/A
2:00 PM79 °FBroken clouds.18 mph61%29.98 "HgN/A
1:00 PM79 °FBroken clouds.18 mph61%30.01 "HgN/A
12:00 PM79 °FBroken clouds.18 mph61%30.04 "HgN/A
11:00 AM79 °FPartly sunny.18 mph58%30.04 "HgN/A
10:00 AM75 °FBroken clouds.17 mph65%30.04 "HgN/A
9:00 AM75 °FScattered clouds.18 mph65%30.04 "HgN/A
8:00 AM73 °FScattered clouds.16 mph69%30.04 "HgN/A
7:00 AM73 °FPartly sunny.16 mph69%30.01 "HgN/A
6:00 AM72 °FScattered clouds.15 mph73%30.01 "HgN/A
5:00 AM73 °FScattered clouds.15 mph69%30.01 "HgN/A
Weather by CustomWeather, © 2014

See weather overviewHow to use our weather pages